Location: Ferchesar
(52.6477°N, 12.4298°E)
Time: 11:47:49
(UTC+01:00)

Altair - Pass Details

Date: 14 December 2021
Orbit: 1501 x 1683 km, 47.2° (Epoch: 27 January)

Event Time Altitude Azimuth Distance (km) Brightness Sun altitude
Rises 18:20:53 0° 282° (WNW) 4,747 11.2 -20.6°
Reaches altitude 10° 18:24:11 10° 276° (W) 3,737 10.6 -21.1°
Maximum altitude 18:32:43 41° 211° (SSW) 2,076 8.4 -22.4°
Drops below altitude 10° 18:41:03 10° 145° (SE) 3,648 9.2 -23.6°
Enters shadow 18:42:29 - 142° (SE) 4,075 9.4 -23.8°
